Flag for Germany Weather past 2 weeks in Forchheim, Bavaria, Germany

Now
85 °F

Passing clouds.


Feels Like: 86 °F
Forecast: 63 / 91 °F
Wind: 1 mph from East

Location: Bamberg

Current Time: Aug 29, 2015 at 5:14:01 PM

Latest Report: Aug 29, 2015 at 4:00 PM


Visibility: 34 mi

Pressure: 30.12 "Hg

Humidity: 47%

Dew point: 63 °F

Location of ForchheimLocation

Historic Weather in Forchheim — Graph

°F

Forchheim temperature yesterday

Maximum temperature yesterday: 74 °F (at 6:00 PM)
Minimum temperature yesterday: 66 °F (at 8:00 AM)
Average temperature yesterday: 70 °F

Past Weeks' High & Low Weather Summary

 TemperatureHumidityPressure
High89 °F (Aug 14, 4:00 PM)100% (Aug 19, 2:00 AM)30.29 "Hg (Aug 19, 2:00 AM)
Low45 °F (Aug 22, 6:00 AM)30% (Aug 22, 3:00 PM)29.68 "Hg (Aug 24, 4:00 PM)
Average64 °F76%29.99 "Hg
* Reported Aug 14 4:00 PM — Aug 29 4:00 PM, Forchheim, Weather by CustomWeather, © 2015

Note: Actual official high and low records may vary slightly from our data, if they occured in-between our weather recording intervals... More about our weather records

Advertising

Forchheim weather history for previous 24 hours

 ConditionsComfort  
Time TempWeatherWind HumidityBarometerVisibility
4:00 PM
Sat, Aug 29
85 °FPassing clouds.1 mph47%30.12 "Hg34 mi
3:00 PM83 °FSunny.2 mph53%30.14 "Hg25 mi
2:00 PM81 °FPassing clouds.2 mph54%30.16 "Hg31 mi
1:00 PM79 °FPassing clouds.1 mph59%30.18 "Hg37 mi
12:00 PM75 °FScattered clouds.2 mph65%30.20 "Hg25 mi
11:00 AM72 °FPassing clouds.1 mph73%30.22 "Hg25 mi
10:00 AM68 °FOvercast.1 mph80%30.23 "Hg19 mi
9:00 AM65 °FOvercast.1 mph89%30.23 "Hg9 mi
7:00 AM62 °FLow clouds.1 mph99%30.21 "Hg2 mi
6:00 AM62 °FLow clouds.1 mph99%30.21 "Hg1 mi
5:00 AM62 °FFog.2 mph98%30.20 "Hg4 mi
4:00 AM61 °FOvercast.No wind99%30.21 "Hg9 mi
3:00 AM60 °FPassing clouds.No wind100%30.20 "Hg7 mi
2:00 AM60 °FClear.No wind99%30.19 "Hg0 mi
1:00 AM62 °FPassing clouds.1 mph96%30.19 "Hg10 mi
11:00 PM
Fri, Aug 28
68 °FOvercast.2 mph87%30.16 "Hg40 mi
10:00 PM68 °FOvercast.1 mph89%30.15 "Hg37 mi
9:00 PM68 °FDrizzle. Overcast.1 mph90%30.13 "Hg12 mi
8:00 PM69 °FOvercast.2 mph85%30.11 "Hg43 mi
7:00 PM70 °FOvercast.5 mph84%30.10 "Hg34 mi
6:00 PM74 °FOvercast.3 mph72%30.08 "Hg43 mi
5:00 PM74 °FOvercast.5 mph71%30.07 "Hg43 mi
Weather by CustomWeather, © 2015

See weather overviewHow to use our weather pages